Content
SEND FEEDBACK

Daily
Averages
Monthly
Summary
United States of America

WINNER, SOUTH DAKOTA


Home > North America > United States > South Dakota
Elevation: 1967 feet     Latitude: 43 23N     Longitude: 099 52W

WEATHER
 
SELECT A DAY
Number of Records: 72,917;   Date Range: 7/5/07 - 7/27/14
 
SHARE

PRINT THIS DATA

[ ← Previous Day ]
WEATHER ALMANAC - JANUARY 31, 2013
[ Next Day → ]
[ °C ]   °F
Weather ElementAverageHighLow
Dewpoint-7.3 °F-0.4 °F (6:38 am)-14.1 °F (8:53 am)
Humidity71.5 %85 % (6:38 am)62 % (8:53 am)
Barometer30.26 in30.47 in (12:53 pm)29.97 in (2:01 am)
Wind Speed14.9 mph28.8 mph (7:37 am)
Wind Gust41.4 mph (7:37 am)
Weather ElementAverage
Visibility6.4 mi
Wind DirectionWNW (298.5 °)

Weather ElementTotal
Precipitation---
Heating Degree Days65.1 (Base 65)
Averaged from 34 records on January 31, 2013
WEATHER CONDITIONS BREAKOUT
WIND DIRECTION BREAKOUT
WEATHER BY HOUR - JANUARY 31, 2013
[ °C ]   °F
Local TimeTemperatureDewpointHumidityBarometerVisibilityWind DirectionWind SpeedGust SpeedPrecipitationEventsConditions
1:53 AM1.9 °F-2.9 °F80 %30.09 in2.5 miNorth (360°)11.5 mph0.00 inSnowLight Snow
2:01 AM1.4 °F-4.0 °F78 %29.97 in2.0 miNorth (350°)10.4 mph0.00 inSnowLight Snow
2:08 AM1.4 °F-4.0 °F78 %29.97 in2.5 miNorth (350°)10.4 mph0.00 inSnowLight Snow
2:15 AM1.4 °F-4.0 °F78 %29.98 in2.5 miNorth (350°)11.5 mph0.00 inSnowLight Snow
2:25 AM1.4 °F-4.0 °F78 %29.98 in2.0 miNNW (340°)12.7 mph0.00 inSnowLight Snow
2:29 AM1.4 °F-4.0 °F78 %29.98 in2.5 miNNW (340°)10.4 mph0.00 inSnowLight Snow
2:38 AM1.4 °F-4.0 °F78 %29.99 in5.0 miNNW (340°)10.4 mph0.00 inSnowLight Snow
2:53 AM1.0 °F-5.1 °F75 %30.13 in4.0 miNNW (340°)11.5 mph0.00 inSnowLight Snow
3:53 AM0.0 °F-5.1 °F79 %30.14 in8.0 miWNW (300°)6.9 mph0.00 inMostly Cloudy
5:53 AM3.0 °F-2.0 °F80 %30.19 in10.0 miNW (320°)16.1 mphOvercast
6:38 AM3.2 °F-0.4 °F85 %30.08 in1.8 miNNW (340°)19.6 mph32.2 mph0.00 inSnowLight Snow
6:46 AM3.2 °F-2.2 °F78 %30.10 in1.2 miNorth (350°)23.0 mph0.00 inSnowLight Snow
6:53 AM1.0 °F-4.0 °F79 %30.25 in2.0 miNorth (350°)23.0 mph0.00 inSnowLight Snow
7:01 AM-0.4 °F-5.8 °F78 %30.11 in2.5 miNorth (350°)23.0 mph29.9 mph0.00 inOvercast
7:09 AM-0.4 °F-5.8 °F78 %30.12 in6.0 miNNW (340°)19.6 mph0.00 inOvercast
7:37 AM-0.4 °F-7.6 °F72 %30.14 in1.2 miNW (320°)28.8 mph41.4 mph0.00 inMostly Cloudy
7:45 AM-0.4 °F-9.4 °F66 %30.15 in2.5 miNW (320°)24.2 mph36.8 mph0.00 inScattered Clouds
7:53 AM-2.0 °F-9.9 °F69 %30.32 in6.0 miNNW (330°)21.9 mph33.4 mph0.00 inHaze
8:53 AM-4.0 °F-14.1 °F62 %30.39 in10.0 miNNW (330°)20.7 mph31.1 mphClear
9:53 AM-4.0 °F-14.1 °F62 %30.43 in8.0 miNNW (330°)26.5 mph33.4 mphClear
10:53 AM-4.0 °F-13.0 °F65 %30.45 in5.0 miNW (320°)27.6 mph0.00 inSnowLight Snow
11:53 AM-0.9 °F-11.0 °F62 %30.46 in10.0 miNW (310°)24.2 mph33.4 mph0.00 inClear
12:53 PM-0.9 °F-11.0 °F62 %30.47 in10.0 miNW (310°)21.9 mph31.1 mphPartly Cloudy
1:53 PM-0.9 °F-11.0 °F62 %30.44 in10.0 miNW (320°)23.0 mphClear
2:53 PM0.0 °F-9.9 °F63 %30.45 in10.0 miNW (310°)16.1 mphClear
3:53 PM0.0 °F-9.9 °F63 %30.45 in10.0 miNW (310°)12.7 mphClear
4:53 PM0.0 °F-9.0 °F66 %30.44 in10.0 miNW (310°)11.5 mphClear
5:53 PM-2.0 °F-9.9 °F69 %30.44 in10.0 miWNW (290°)8.1 mphClear
6:53 PM-2.9 °F-9.9 °F72 %30.45 in10.0 miWSW (240°)5.8 mphClear
7:53 PM-2.9 °F-9.9 °F72 %30.45 in10.0 miSW (230°)5.8 mphPartly Cloudy
8:53 PM-0.9 °F-9.0 °F69 %30.44 in10.0 miWSW (250°)3.5 mphOvercast
9:53 PM1.0 °F-8.0 °F66 %30.43 in10.0 miCalmOvercast
10:53 PM1.9 °F-7.1 °F66 %30.41 in10.0 miCalmOvercast
11:53 PM3.9 °F-6.0 °F64 %30.39 in10.0 miSSW (200°)4.6 mphOvercast
Hourly data recorded from KICR, located miles away from Winner, South Dakota







STORIES FROM OUR PARTNERS